ARIANE 44LP DEB, 25539

Orbit data source: Space-Track

ARIANE 44LP DEB, 25539 is space debris in HEO originally from a launch on Sun, 11 Dec 1988 UTC launched from the French Guiana (FRGUI). Debris objects in space refer to the collection of defunct objects orbiting the Earth. Examples of debris include non-operational satellites, rocket bodies, and fragments generated from explosions, collisions, or faulty payload assembly.

Loading next visibility...
Identifier
25539, 1988-109F
Orbit
HEO
Country
Flag of FRFR
Related business
Manufacturer
Unknown
Mission
Spacecraft
Bus & Motor
Unknown
Mass
Unknown
Launch date (UTC)
1988-12-11 (38 years ago)
Launch vehicle
Unknown
Launch site
French Guiana (FRGUI)
Object type
Payload
Rocket body
Debris
Shape & HBR
Unknown shape, 0.4 m
Radar Cross Section
Medium (>0.1 m² and <1 m²)

Expand to show TLE details & history
Last TLE update: 2 days ago

TLE from 2 days ago
0 ARIANE 44LP DEB
1 25539U 88109F   26171.14774839  .00001139  00000-0  40452-2 0  9991
2 25539   7.1866 313.5360 6800067 245.8013  32.1162  2.78565073261125
Epoch: 2026-06-20T03:32Z
TLE epoch observation values (Epoch: 2026-06-20T03:32:45.460Z)
Latitude
-0.00001°
Longitude
-7.89302°
Altitude
9,566.057 km
Speed
5.596 km/s
True Right ascension
20h 54m 39s
True Declination
0° 00' 00"
Sunlit
Object was in daylight at epoch
Visualization orbit readout
Latitude
Unknown
Longitude
Unknown
Altitude
Unknown
Speed
Unknown
Apparent Right ascension
Unknown
Apparent Declination
Unknown
Sunlit
N/A
Visualization observer readout
Local Sidereal Time
23:27:26
Azimuth
Unknown
Elevation
Unknown
Doppler factor
Unknown
Orbital elements
Apogee altitude
29,475.464 km
Perigee altitude
450.95 km
Semi-major axis
21,341.344 km
Eccentricity
0.68001
Inclination
7.1866°
RAAN
313.536°
Arg. of periapsis
245.8013°
True anomaly
114.50769°
Mean anomaly
32.1162°
Eccentric anomaly
68.32219°
Mean motion
0.69616 °/min
Orbital period
517.12 mins
BSTAR
0.0040452
Loading maneuver chart data...
Computing Atmospheric mass density...
Loading historical data...
Loading historical data...
Loading historical data...
Loading historical data...
Loading historical data...
Loading historical data...
Loading historical data...

Documentation

Showing up to 5 results
|